Franklin, PA

5:44 PM EDT on May 22, 2017 (GMT -0400)
Venango Regional

Weather History for KFKL - October, 2011

Change the Weather History Date:

Sunday, October 16, 2011

  Actual Average Record
Temperature  
Mean Temperature 48 °F -  
Max Temperature 51 °F 64 °F 84 °F (1930)
Min Temperature 46 °F 39 °F 25 °F (1944)
Degree Days  
Heating Degree Days 16    
Moisture  
Dew Point 40 °F    
Average Humidity 75    
Maximum Humidity 94    
Minimum Humidity 58    
Precipitation  
Precipitation 0.27 in - - ()
Sea Level Pressure  
Sea Level Pressure 29.84 in    
Wind  
Wind Speed 9 mph (SW)    
Max Wind Speed 16 mph    
Max Gust Speed 22 mph    
Visibility 10 miles    
Events      
Averages and records for this station are not official NWS values.
T = Trace of Precipitation, MM = Missing Value Source: NWS Daily Summary

Daily Weather History Graph

Daily Weather History Graph

Search for Another Location

Airport or City:

Trip Planner

Search our weather history database for the weather conditions in past years. The results will help you decide how hot, cold, wet, or windy it might be!

Date:

Astronomy

Oct. 16, 2011 Rise Set
Actual Time 7:32 AM EDT 6:37 PM EDT
Civil Twilight 7:04 AM EDT 7:05 PM EDT
Nautical Twilight 6:32 AM EDT 7:37 PM EDT
Astronomical Twilight 6:00 AM EDT 8:09 PM EDT
Moon 9:18 PM EDT (10/16) 11:50 AM EDT (10/16)
Length of Visible Light 12h 01m
Length of Day
11h 05m
Waning Gibbous, 82% of the Moon is Illuminated
Oct 16
Waning Gibbous
Oct 19
Last Quarter
Oct 26
New
Nov 2
First Quarter
Nov 10
Full

Hourly Weather History & Observations

Time (EDT) Temp. Windchill Dew Point Humidity Pressure Visibility Wind Dir Wind Speed Gust Speed Precip Events Conditions
12:15 AM 48.2 °F - 33.8 °F 58% 29.85 in 10.0 mi WSW 8.1 mph - N/A   Overcast
12:35 AM 48.2 °F - 33.8 °F 58% 29.85 in 10.0 mi WSW 9.2 mph - N/A   Overcast
12:55 AM 48.2 °F - 33.8 °F 58% 29.86 in 10.0 mi WSW 9.2 mph - N/A   Overcast
1:15 AM 48.2 °F - 33.8 °F 58% 29.86 in 10.0 mi WSW 10.4 mph - N/A   Overcast
1:35 AM 48.2 °F - 33.8 °F 58% 29.87 in 10.0 mi WSW 10.4 mph - N/A   Overcast
1:55 AM 48.2 °F - 33.8 °F 58% 29.86 in 10.0 mi SW 10.4 mph 17.3 mph N/A   Overcast
2:15 AM 48.2 °F - 33.8 °F 58% 29.87 in 10.0 mi SW 6.9 mph 16.1 mph N/A   Overcast
2:35 AM 48.2 °F - 33.8 °F 58% 29.87 in 10.0 mi SW 10.4 mph - N/A   Overcast
2:55 AM 46.4 °F 41.1 °F 33.8 °F 62% 29.88 in 10.0 mi SW 11.5 mph 16.1 mph N/A   Partly Cloudy
3:15 AM 48.2 °F - 33.8 °F 58% 29.89 in 10.0 mi SW 13.8 mph 18.4 mph N/A   Clear
3:35 AM 48.2 °F - 35.6 °F 62% 29.88 in 10.0 mi SW 9.2 mph 19.6 mph N/A   Clear
3:55 AM 46.4 °F 40.4 °F 35.6 °F 66% 29.89 in 10.0 mi WSW 13.8 mph 18.4 mph N/A   Clear
4:15 AM 48.2 °F - 35.6 °F 62% 29.89 in 10.0 mi WSW 11.5 mph - N/A   Clear
4:55 AM 46.4 °F 41.9 °F 35.6 °F 66% 29.89 in 10.0 mi SW 9.2 mph - N/A   Clear
5:15 AM 46.4 °F 42.9 °F 35.6 °F 66% 29.89 in 10.0 mi SW 6.9 mph - N/A   Clear
5:35 AM 46.4 °F 42.4 °F 35.6 °F 66% 29.90 in 10.0 mi SW 8.1 mph - N/A   Clear
5:55 AM 46.4 °F 43.5 °F 35.6 °F 66% 29.90 in 10.0 mi SW 5.8 mph - N/A   Clear
6:15 AM 46.4 °F 42.4 °F 35.6 °F 66% 29.90 in 10.0 mi SSW 8.1 mph - N/A   Scattered Clouds
6:35 AM 46.4 °F 42.4 °F 37.4 °F 71% 29.91 in 10.0 mi SSW 8.1 mph - N/A   Overcast
6:55 AM 46.4 °F 41.9 °F 37.4 °F 71% 29.91 in 10.0 mi SSW 9.2 mph - N/A   Overcast
7:15 AM 46.4 °F 41.9 °F 37.4 °F 71% 29.92 in 10.0 mi SW 9.2 mph - N/A   Overcast
7:35 AM 46.4 °F 42.4 °F 37.4 °F 71% 29.92 in 10.0 mi SW 8.1 mph - N/A   Overcast
7:55 AM 46.4 °F 42.4 °F 37.4 °F 71% 29.92 in 10.0 mi SW 8.1 mph - N/A   Overcast
8:15 AM 46.4 °F 42.9 °F 37.4 °F 71% 29.92 in 10.0 mi SW 6.9 mph - N/A   Overcast
8:35 AM 48.2 °F - 37.4 °F 66% 29.92 in 10.0 mi SW 6.9 mph - N/A   Overcast
8:55 AM 48.2 °F - 37.4 °F 66% 29.92 in 10.0 mi SW 6.9 mph - N/A   Overcast
9:15 AM 48.2 °F - 37.4 °F 66% 29.91 in 10.0 mi SSW 11.5 mph - N/A   Overcast
9:35 AM 48.2 °F - 37.4 °F 66% 29.92 in 10.0 mi SSW 11.5 mph - N/A   Overcast
9:55 AM 48.2 °F - 37.4 °F 66% 29.92 in 10.0 mi SW 9.2 mph 16.1 mph N/A   Overcast
10:15 AM 48.2 °F - 37.4 °F 66% 29.92 in 10.0 mi SW 3.5 mph - N/A   Overcast
10:35 AM 48.2 °F - 39.2 °F 71% 29.93 in 10.0 mi SSW 6.9 mph - N/A   Overcast
10:55 AM 48.2 °F - 37.4 °F 66% 29.93 in 10.0 mi SSW 10.4 mph - N/A   Overcast
11:15 AM 48.2 °F - 41.0 °F 76% 29.92 in 10.0 mi SSW 6.9 mph - N/A   Overcast
11:35 AM 46.4 °F 41.5 °F 42.8 °F 87% 29.91 in 10.0 mi South 10.4 mph - 0.01 in   Overcast
11:55 AM 46.4 °F 41.9 °F 42.8 °F 87% 29.88 in 10.0 mi South 9.2 mph - 0.02 in   Overcast
12:15 PM 46.4 °F 42.4 °F 42.8 °F 87% 29.88 in 10.0 mi South 8.1 mph - 0.01 in   Overcast
12:35 PM 48.2 °F - 44.6 °F 87% 29.86 in 10.0 mi South 10.4 mph - 0.01 in   Overcast
12:55 PM 46.4 °F 40.7 °F 42.8 °F 87% 29.83 in 10.0 mi South 12.7 mph 18.4 mph 0.02 in   Overcast
1:35 PM 48.2 °F - 44.6 °F 87% 29.79 in 10.0 mi South 15.0 mph - 0.02 in   Overcast
1:55 PM 48.2 °F - 46.4 °F 93% 29.76 in 10.0 mi SSW 16.1 mph 20.7 mph 0.03 in   Overcast
2:15 PM 48.2 °F - 44.6 °F 87% 29.76 in 10.0 mi SSW 13.8 mph 21.9 mph N/A   Overcast
2:35 PM 48.2 °F - 44.6 °F 87% 29.74 in 10.0 mi South 13.8 mph 20.7 mph 0.02 in   Overcast
3:15 PM 50.0 °F - 44.6 °F 82% 29.73 in 10.0 mi SW 9.2 mph - N/A   Overcast
3:35 PM 48.2 °F - 46.4 °F 93% 29.72 in 9.0 mi SSW 9.2 mph - 0.02 in   Overcast
3:55 PM 48.2 °F - 46.4 °F 93% 29.73 in 10.0 mi SW 6.9 mph - 0.04 in   Overcast
4:15 PM 48.2 °F - 46.4 °F 93% 29.73 in 10.0 mi SW 4.6 mph - 0.03 in   Overcast
4:35 PM 48.2 °F - 46.4 °F 93% 29.71 in 10.0 mi SSW 4.6 mph - 0.05 in   Overcast
4:55 PM 48.2 °F - 46.4 °F 93% 29.71 in 10.0 mi SSW 4.6 mph - 0.07 in   Overcast
5:15 PM 48.2 °F - 46.4 °F 93% 29.72 in 9.0 mi SW 4.6 mph - 0.01 in   Overcast
5:35 PM 50.0 °F - 48.2 °F 94% 29.69 in 10.0 mi South 11.5 mph 17.3 mph 0.06 in   Overcast
5:55 PM 51.8 °F - 48.2 °F 88% 29.68 in 10.0 mi SW 5.8 mph - 0.06 in   Overcast
6:15 PM 50.0 °F - 48.2 °F 94% 29.68 in 10.0 mi SSW 5.8 mph - N/A   Overcast
6:35 PM 50.0 °F - 48.2 °F 94% 29.70 in 10.0 mi SSW 3.5 mph - N/A   Overcast
6:55 PM 50.0 °F - 48.2 °F 94% 29.69 in 10.0 mi SSW 4.6 mph - N/A   Overcast
7:15 PM 50.0 °F - 48.2 °F 94% 29.70 in 10.0 mi West 3.5 mph - 0.01 in   Overcast
7:35 PM 50.0 °F - 48.2 °F 94% 29.70 in 10.0 mi SW 4.6 mph - 0.01 in   Overcast
7:55 PM 51.8 °F - 48.2 °F 88% 29.71 in 10.0 mi WSW 5.8 mph - 0.01 in   Overcast
8:15 PM 51.8 °F - 48.2 °F 88% 29.72 in 10.0 mi West 8.1 mph - 0.01 in   Overcast
8:35 PM 50.0 °F - 48.2 °F 94% 29.71 in 8.0 mi West 9.2 mph - 0.04 in   Overcast
8:55 PM 50.0 °F - 48.2 °F 94% 29.72 in 9.0 mi West 5.8 mph - 0.06 in   Overcast
9:15 PM 50.0 °F - 48.2 °F 94% 29.72 in 9.0 mi West 8.1 mph - 0.03 in   Overcast
9:35 PM 50.0 °F - 48.2 °F 94% 29.71 in 10.0 mi West 8.1 mph - 0.04 in   Overcast
9:55 PM 50.0 °F - 48.2 °F 94% 29.72 in 9.0 mi WSW 8.1 mph - 0.05 in   Overcast
10:15 PM 50.0 °F - 48.2 °F 94% 29.72 in 9.0 mi WSW 6.9 mph - N/A   Overcast
10:35 PM 50.0 °F - 48.2 °F 94% 29.73 in 10.0 mi WSW 9.2 mph - N/A   Overcast
10:55 PM 50.0 °F - 48.2 °F 94% 29.74 in 10.0 mi WSW 10.4 mph - N/A   Overcast
11:15 PM 50.0 °F - 48.2 °F 94% 29.75 in 9.0 mi West 10.4 mph - N/A   Overcast
11:35 PM 48.2 °F - 46.4 °F 93% 29.75 in 10.0 mi West 12.7 mph 17.3 mph N/A   Overcast
11:55 PM 48.2 °F - 46.4 °F 93% 29.76 in 10.0 mi West 9.2 mph - N/A   Mostly Cloudy